Weather History for Cody, WY

Change the Weather History Date:

Monday, January 28, 2013

  Actual Average Record
Temperature  
Mean Temperature 24 °F -  
Max Temperature 28 °F 36 °F 60 °F (1954)
Min Temperature 19 °F 14 °F -30 °F (1916)
Degree Days  
Heating Degree Days 42    
Moisture  
Dew Point 16 °F    
Average Humidity 71    
Maximum Humidity 93    
Minimum Humidity 43    
Precipitation  
Precipitation 0.00 in - - ()
Sea Level Pressure  
Sea Level Pressure 29.73 in    
Wind  
Wind Speed 6 mph (WSW)    
Max Wind Speed 18 mph    
Max Gust Speed 26 mph    
Visibility 10 miles    
Events      
Averages and records for this station are not official NWS values.
T = Trace of Precipitation, MM = Missing Value Source: NWS Daily Summary

Daily Weather History Graph

Daily Weather History Graph

Search for Another Location

Airport:

Trip Planner

Search our weather history database for the weather conditions in past years. The results will help you decide how hot, cold, wet, or windy it might be!

Date:

Astronomy

Jan. 28, 2013 Rise Set
Actual Time 7:38 AM MST 5:20 PM MST
Civil Twilight 7:07 AM MST 5:51 PM MST
Nautical Twilight 6:32 AM MST 6:26 PM MST
Astronomical Twilight 5:58 AM MST 7:00 PM MST
Moon 7:25 PM MST 8:00 AM MST
Length of Visible Light 10h 44m
Length of Day
9h 41m
Full, 97% of the Moon is Illuminated
Jan 28
Full
Feb 3
Last Quarter
Feb 10
New
Feb 17
First Quarter
Feb 25
Full

Hourly Weather History & Observations

Time (MST) Temp. Windchill Dew Point Humidity Pressure Visibility Wind Dir Wind Speed Gust Speed Precip Events Conditions
12:15 AM 24.8 °F 17.9 °F 21.2 °F 86% 29.75 in 6.0 mi NW 5.8 mph - N/A   Overcast
12:35 AM 24.8 °F 17.9 °F 21.2 °F 86% 29.74 in 7.0 mi NW 5.8 mph - N/A   Overcast
12:55 AM 23.0 °F 17.0 °F 21.2 °F 93% 29.74 in 10.0 mi WNW 4.6 mph - N/A   Overcast
1:15 AM 23.0 °F 17.0 °F 19.4 °F 86% 29.74 in 10.0 mi WNW 4.6 mph - N/A   Overcast
1:35 AM 23.0 °F 17.0 °F 19.4 °F 86% 29.75 in 10.0 mi NW 4.6 mph - N/A   Overcast
1:55 AM 24.8 °F 17.9 °F 19.4 °F 80% 29.75 in 10.0 mi NW 5.8 mph - N/A   Overcast
2:15 AM 24.8 °F 19.1 °F 19.4 °F 80% 29.74 in 10.0 mi NNW 4.6 mph - N/A   Overcast
2:35 AM 24.8 °F 20.5 °F 19.4 °F 80% 29.74 in 10.0 mi NW 3.5 mph - N/A   Overcast
2:55 AM 24.8 °F 19.1 °F 19.4 °F 80% 29.75 in 10.0 mi WNW 4.6 mph - N/A   Overcast
3:15 AM 24.8 °F 16.9 °F 19.4 °F 80% 29.75 in 10.0 mi NW 6.9 mph - N/A   Overcast
3:35 AM 24.8 °F 17.9 °F 19.4 °F 80% 29.75 in 10.0 mi NW 5.8 mph - N/A   Overcast
3:55 AM 24.8 °F 17.9 °F 19.4 °F 80% 29.75 in 10.0 mi NW 5.8 mph - N/A   Overcast
5:35 AM 24.8 °F 20.5 °F 17.6 °F 74% 29.75 in 10.0 mi WNW 3.5 mph - N/A   Overcast
5:55 AM 24.8 °F 17.9 °F 17.6 °F 74% 29.75 in 10.0 mi WNW 5.8 mph - N/A   Overcast
6:15 AM 24.8 °F 19.1 °F 19.4 °F 80% 29.75 in 10.0 mi West 4.6 mph - N/A   Mostly Cloudy
6:35 AM 24.8 °F 17.9 °F 17.6 °F 74% 29.75 in 10.0 mi WNW 5.8 mph - N/A   Overcast
6:55 AM 24.8 °F 19.1 °F 17.6 °F 74% 29.76 in 10.0 mi West 4.6 mph - N/A   Overcast
7:15 AM 24.8 °F 19.1 °F 17.6 °F 74% 29.76 in 10.0 mi WNW 4.6 mph - N/A   Mostly Cloudy
7:55 AM 21.2 °F 13.6 °F 17.6 °F 86% 29.76 in 10.0 mi WSW 5.8 mph - N/A   Mostly Cloudy
8:15 AM 21.2 °F 13.6 °F 17.6 °F 86% 29.76 in 10.0 mi WSW 5.8 mph - N/A   Mostly Cloudy
8:35 AM 21.2 °F 16.4 °F 17.6 °F 86% 29.76 in 10.0 mi WSW 3.5 mph - N/A   Scattered Clouds
9:15 AM 24.8 °F - 19.4 °F 80% 29.76 in 10.0 mi Calm Calm - N/A   Overcast
9:35 AM 23.0 °F 17.0 °F 19.4 °F 86% 29.76 in 10.0 mi SW 4.6 mph - N/A   Overcast
9:55 AM 23.0 °F 15.8 °F 19.4 °F 86% 29.76 in 10.0 mi SW 5.8 mph - N/A   Overcast
10:15 AM 23.0 °F 17.0 °F 19.4 °F 86% 29.77 in 10.0 mi WSW 4.6 mph - N/A   Overcast
10:35 AM 24.8 °F 19.1 °F 19.4 °F 80% 29.77 in 10.0 mi WSW 4.6 mph - N/A   Overcast
10:55 AM 24.8 °F - 19.4 °F 80% 29.77 in 10.0 mi Calm Calm - N/A   Overcast
11:15 AM 24.8 °F - 19.4 °F 80% 29.77 in 10.0 mi Calm Calm - N/A   Overcast
11:35 AM 26.6 °F - 19.4 °F 74% 29.76 in 10.0 mi Calm Calm - N/A   Overcast
11:55 AM 26.6 °F 21.2 °F 17.6 °F 69% 29.76 in 10.0 mi SSE 4.6 mph - N/A   Mostly Cloudy
12:15 PM 26.6 °F 22.6 °F 17.6 °F 69% 29.74 in 10.0 mi SSW 3.5 mph - N/A   Scattered Clouds
12:35 PM 26.6 °F - 19.4 °F 74% 29.74 in 10.0 mi Calm Calm - N/A   Mostly Cloudy
12:55 PM 26.6 °F 22.6 °F 19.4 °F 74% 29.73 in 10.0 mi SSW 3.5 mph - N/A   Mostly Cloudy
1:15 PM 28.4 °F 24.6 °F 19.4 °F 69% 29.73 in 10.0 mi SW 3.5 mph - N/A   Overcast
1:35 PM 28.4 °F 21.2 °F 19.4 °F 69% 29.72 in 10.0 mi South 6.9 mph - N/A   Overcast
1:55 PM 28.4 °F 22.2 °F 17.6 °F 64% 29.71 in 10.0 mi South 5.8 mph - N/A   Overcast
2:15 PM 28.4 °F 19.1 °F 17.6 °F 64% 29.71 in 10.0 mi South 10.4 mph - N/A   Mostly Cloudy
2:35 PM 28.4 °F 19.7 °F 17.6 °F 64% 29.71 in 10.0 mi South 9.2 mph - N/A   Mostly Cloudy
3:35 PM 28.4 °F 19.7 °F 17.6 °F 64% 29.71 in 10.0 mi South 9.2 mph - N/A   Clear
3:55 PM 26.6 °F 18.2 °F 17.6 °F 69% 29.72 in 10.0 mi South 8.1 mph - N/A   Clear
4:15 PM 26.6 °F 18.2 °F 17.6 °F 69% 29.72 in 10.0 mi SSE 8.1 mph - N/A   Clear
4:35 PM 24.8 °F 16.1 °F 17.6 °F 74% 29.73 in 10.0 mi South 8.1 mph - N/A   Partly Cloudy
4:55 PM 24.8 °F 15.3 °F 17.6 °F 74% 29.73 in 10.0 mi SSE 9.2 mph - N/A   Partly Cloudy
5:15 PM 23.0 °F 15.8 °F 15.8 °F 74% 29.73 in 10.0 mi SSE 5.8 mph - N/A   Mostly Cloudy
5:35 PM 21.2 °F 16.4 °F 15.8 °F 80% 29.73 in 10.0 mi SSE 3.5 mph - N/A   Overcast
5:55 PM 21.2 °F 12.6 °F 15.8 °F 80% 29.73 in 10.0 mi SSE 6.9 mph - N/A   Scattered Clouds
6:15 PM 19.4 °F 9.5 °F 14.0 °F 80% 29.73 in 10.0 mi SW 8.1 mph - N/A   Clear
6:55 PM 24.8 °F 14.6 °F 8.6 °F 50% 29.73 in 10.0 mi WNW 10.4 mph 18.4 mph N/A   Partly Cloudy
7:35 PM 24.8 °F 12.9 °F 6.8 °F 46% 29.72 in 10.0 mi WSW 13.8 mph 23.0 mph N/A   Clear
7:55 PM 24.8 °F 11.1 °F 6.8 °F 46% 29.71 in 10.0 mi SW 18.4 mph 23.0 mph N/A   Clear
8:15 PM 21.2 °F 7.3 °F 8.6 °F 58% 29.71 in 10.0 mi SW 16.1 mph 25.3 mph N/A   Clear
8:35 PM 21.2 °F 7.8 °F 6.8 °F 54% 29.70 in 10.0 mi SW 15.0 mph 26.5 mph N/A   Clear
8:55 PM 21.2 °F 8.9 °F 6.8 °F 54% 29.71 in 10.0 mi WSW 12.7 mph 20.7 mph N/A   Clear
9:15 PM 21.2 °F 10.1 °F 6.8 °F 54% 29.71 in 10.0 mi SW 10.4 mph - N/A   Clear
9:35 PM 21.2 °F 10.9 °F 6.8 °F 54% 29.70 in 10.0 mi WSW 9.2 mph 23.0 mph N/A   Clear
9:55 PM 23.0 °F 9.6 °F 6.8 °F 50% 29.70 in 10.0 mi WSW 16.1 mph 21.9 mph N/A   Clear
10:15 PM 23.0 °F 10.6 °F 5.0 °F 46% 29.70 in 10.0 mi WSW 13.8 mph 20.7 mph N/A   Clear
10:55 PM 24.8 °F 11.9 °F 5.0 °F 43% 29.69 in 10.0 mi WSW 16.1 mph 25.3 mph N/A   Partly Cloudy
11:15 PM 23.0 °F 10.6 °F 5.0 °F 46% 29.68 in 10.0 mi WSW 13.8 mph 23.0 mph N/A   Clear
11:35 PM 23.0 °F 10.1 °F 3.2 °F 43% 29.68 in 10.0 mi WSW 15.0 mph 23.0 mph N/A   Clear